SITRO-AIS F

Last updated on Sun Apr 21 2024 00:03:33 GMT+0000 (Coordinated Universal Time)

1 59056U 24039F 24111.59269580 .00036855 00000+0 14694-2 0 9998 2 59056 97.3878 74.2257 0021191 66.0178 294.3275 15.24894231 7815
UTC large
Height (km)
Speed (km/s)
/
Latitude / Longitude
Inclination (degrees)
Orbital Period (minutes)
Azimuth
Elevation
Range (km)
Doppler Factor

Next 0 passes for location: London (51.5072 / 0.1276)

Sorry there are no passes over London.